Showing default

OPS 7034 (TRANSIT 18), 3133

Orbit data source: Space-Track

OPS 7034 (TRANSIT 18), 3133 is a payload satellite owned by USN NAVAIR (US) in LEO that was launched on Sat, 02 Mar 1968 UTC via an SCOUT A launch vehicle from the Air Force Western Test Range (AFWTR). Payload-class satellites include a variety of spacecraft equipped with specific instruments for various scientific and technological missions. These include communications satellites like Starlink; space stations such as the ISS; scientific satellites like the Hubble; Earth observation satellites from companies like Planet Labs, Umbra, and HawkEye 360; GPS; miniature CubeSats for education and research; and military/defense satellites.

Loading next visibility...
Identifier
3133, 1968-012A
Orbit
LEO
Country
Flag of USUS
Related business
Manufacturer
RCA/East Windsor
Mission
Spacecraft
Bus & Motor
TRANSIT 5, Unknown motor
Mass
60 kg wet, 60 kg dry
Launch date (UTC)
1968-03-02 (59 years ago)
Launch vehicle
SCOUT A
Launch site
Air Force Western Test Range (AFWTR)
Object type
Payload
Rocket body
Debris
Shape & HBR
OCT CYL + 4 PAN + ANT, 1.1 m
Radar Cross Section
Medium (>0.1 m² and <1 m²)

Expand to show TLE details & history
Last TLE update: 1 day ago

TLE from 1 day ago
0 OPS 7034 (TRANSIT 18)
1 03133U 68012A   26257.02013499  .00000081  00000-0  10681-3 0  9995
2 03133  90.0211 274.3428 0075881  93.0685 296.4700 13.51623535606379
Epoch: 2026-09-14T00:28Z
TLE epoch observation values (Epoch: 2026-09-14T00:28:59.663Z)
Latitude
28.79976°
Longitude
-85.92377°
Altitude
1,045.076 km
Speed
7.344 km/s
True Right ascension
18h 17m 19s
True Declination
28° 39' 38"
Sunlit
Object was in daylight at epoch
Visualization orbit readout
Latitude
Unknown
Longitude
Unknown
Altitude
Unknown
Speed
Unknown
Apparent Right ascension
Unknown
Apparent Declination
Unknown
Sunlit
N/A
Visualization observer readout
Local Sidereal Time
03:21:57
Azimuth
Unknown
Elevation
Unknown
Doppler factor
Unknown
Orbital elements
Apogee altitude
1,119.805 km
Perigee altitude
1,006.872 km
Semi-major axis
7,441.475 km
Eccentricity
0.00759
Inclination
90.0211°
RAAN
274.3428°
Arg. of periapsis
93.0685°
True anomaly
295.68834°
Mean anomaly
296.47°
Eccentric anomaly
296.0795°
Mean motion
3.38107 °/min
Orbital period
106.48 mins
BSTAR
0.00010681
Loading maneuver chart data...
Computing Atmospheric mass density...
Loading historical data...
Loading historical data...
Loading historical data...
Loading historical data...
Loading historical data...
Loading historical data...
Loading historical data...

Documentation

Showing up to 5 results
|